Regional Weather Roundup
Issued by NWS

Home | Current Version | Previous Version | Graphics & Text | Print | Product List | Glossary On
Versions: 1 2 3 4 5 6 7 8 9 10 11 12 13 14 15 16 17 18 19 20 21 22 23 24 25 26 27 28 29 30 31 32 33 34 35 36 37 38 39 40 41 42 43 44 45 46 47 48 49 50
000
ASUS45 KTFX 050919
RWRMT
MONTANA HOURLY WEATHER ROUNDUP
NATIONAL WEATHER SERVICE GREAT FALLS MT
219 AM MST THU MAR 5 2015

NOTE: "FAIR" INDICATES FEW OR NO CLOUDS BELOW 12000 FEET WITH NO
SIGNIFICANT WEATHER AND/OR OBSTRUCTIONS TO VISIBILITY.

* THESE STATIONS ARE NOT UNDER NWS QUALITY CONTROL. THEY DO NOT
   REPORT WEATHER SUCH AS PRECIPITATION OR FOG.

MTZ001>007-043-051000-
WEST OF THE DIVIDE
CITY           SKY/WX    TMP DP  RH WIND       PRES   REMARKS
KALISPELL      PTCLDY    19  16  88 CALM      30.25R
MISSOULA       CLEAR     23  14  68 NE5       30.28R WCI  16
BUTTE          PTCLDY    19  10  68 N5        30.16R WCI  12
MULLAN PASS    PTCLDY    21  -2  36 SW8       30.17R WCI  11
* ANACONDA     CLEAR     21  10  62 NE3        N/A
* ESSEX        N/A       14   9  80 N/A        N/A
* EUREKA APT   CLEAR     18  10  71 CALM      30.27R
* HAMILTON APT CLEAR     28  12  51 S10       30.26R WCI  19
* LIBBY APT    CLEAR     18  14  84 CALM      30.27S
* LINCOLN      N/A       27   8  44 S5G12      N/A   WCI  21
* LOOKOUT PASS N/A       21   8  57 SE1        N/A
* POLSON       N/A       25  10  53 S2         N/A
* RONAN APT    PTCLDY    27  18  69 N/A        N/A
* SEELEY LAKE  N/A        9   3  76 NE1        N/A
* THOMP F APT  PTCLDY    17   6  62 NE4        N/A
$$

MTZ008-052>055-051000-
SOUTHWEST MONTANA
CITY           SKY/WX    TMP DP  RH WIND       PRES   REMARKS
BOZEMAN        PTCLDY    18   9  68 CALM      30.17R
DILLON         PTCLDY    27   9  46 S14       30.17R WCI  16
* W YELLOWSTON PTCLDY     6  -2  69 N/A        N/A
* THREE FORKS  CLEAR     18   9  68 N/A        N/A
* BOULDER HILL N/A       25   4  40 S2         N/A
* MONIDA PASS  N/A       15   6  67 SE12G17    N/A   WCI   1
* RAYNOLDS PAS N/A        8  -7  50 SE17       N/A   WCI -10
* WHITEHALL    N/A       32   5  32 W9G18      N/A   WCI  24
* WISE RIVER   N/A       28   5  37 W9G18      N/A   WCI  19
$$

MTZ009>010-012-014-046-048-049-054-051000-
EAST SLOPES AND CENTRAL MONTANA
CITY           SKY/WX    TMP DP  RH WIND       PRES   REMARKS
CUT BANK       PTCLDY    30  10  43 W25       30.01R WCI  16
GREAT FALLS    PTCLDY    27  14  58 SW13      30.05R WCI  16
HELENA         PTCLDY    36   9  32 W9        30.14S WCI  29
MALMSTROM AFB  PTCLDY    25  16  69 SW13      30.07R WCI  13
* CONRAD       CLEAR     27  14  58 S8         N/A   WCI  19
* DEARBORN     N/A       27  13  55 SW5        N/A   WCI  21
* EAST GLACIER N/A       28   6  39 W19G31     N/A   WCI  15
* MONARCH      N/A       24   4  42 SW14       N/A   WCI  12
* PENDROY      N/A       30  13  49 W19        N/A   WCI  18
* ROGERS PASS  N/A       23   7  50 SE8G17     N/A   WCI  14
* SWEET GRASS  N/A       27  11  51 W19        N/A   WCI  14
* WHITE SULPH  N/A       22   8  55 N3G8       N/A
$$

MTZ011-013-016-021-035-040-045-047-050-051-051000-
NORTH CENTRAL MONTANA
CITY           SKY/WX    TMP DP  RH WIND       PRES   REMARKS
HAVRE          PTCLDY    25  14  63 W8        30.02R WCI  16
LEWISTOWN      PTCLDY    25  12  58 SW13      30.03S WCI  13
* N BAR RANCH  FAIR      28   9  45 VRB7      30.01S WCI  21
* CHINOOK      PTCLDY    10   5  80 CALM      30.03R
* FORT BENTON  PTCLDY    30  16  56 SW12      30.06R WCI  20
* CHESTER      N/A       20  10  65 S4         N/A
* DENTON       N/A       27  13  55 SW10       N/A   WCI  18
* GEYSER       N/A       30  11  45 SW15G24    N/A   WCI  19
* JUDITH GAP   N/A       18   3  52 S2         N/A
* LOMA         N/A       27  14  58 W5         N/A   WCI  21
$$

MTZ017>020-022>027-061-062-051000-
NORTHEAST MONTANA
CITY           SKY/WX    TMP DP  RH WIND       PRES   REMARKS
GLASGOW        CLOUDY    12   0  58 E12       30.02F WCI  -2
GLENDIVE       FAIR       5  -2  72 S9        30.10F WCI  -9
JORDAN         PTCLDY    18   9  68 W5        30.03F WCI  11
SIDNEY         MOCLDY     1 -13  51 CALM      30.15F
WOLF POINT     MOCLDY     7   0  73 NE7       30.10F WCI  -5
* BEAVER HILL  N/A       11  -2  55 S16        N/A   WCI  -6
* CIRCLE       N/A       17   4  56 SW9        N/A   WCI   6
* LINDSAY DVD  N/A       11  -2  55 S9         N/A   WCI  -2
* NAVAJO       N/A        9  -4  55 S8         N/A   WCI  -3
* PLENTYWOOD A CLEAR      0  -8  68 E8        30.07F WCI -14
* POPLAR APT   CLEAR      1  -4  79 NW5       30.10F WCI  -9
* SACO         N/A        8   1  73 E9         N/A   WCI  -5
$$

MTZ028>042-056>058-051000-
SOUTHCENTRAL AND SOUTHEAST MONTANA
CITY           SKY/WX    TMP DP  RH WIND       PRES   REMARKS
BAKER          CLEAR      3  -2  79 E3        30.10F
BILLINGS       PTCLDY    21   3  45 SW22      30.09R WCI   5
LIVINGSTON     PTCLDY    34   9  35 SW24G41   30.11R WCI  22
MILES CITY     CLEAR     10   1  67 S12       30.09F WCI  -5
* BIG TIMBER A PTCLDY    34   7  32 W30G39    30.03S WCI  20
* FORSYTH APT  CLEAR     14   7  73 SE3       30.09S
* LAUREL APT   PTCLDY    21   1  41 SW10G17    N/A   WCI  10
* ROUNDUP APT  MOCLDY    21   3  45 SW6        N/A   WCI  13
* HYSHAM       N/A       19   3  49 W8         N/A   WCI   9
* REED POINT   N/A       17   8  68 NE2        N/A
* ROSCOE HILL  N/A       23  -2  33 E9         N/A   WCI  13
$$

REGIONAL REPORTS...DAKOTAS
CITY           SKY/WX    TMP DP  RH WIND       PRES   REMARKS
WILLISTON      PTCLDY     1  -8  65 S7        30.15F WCI -12
DICKINSON      CLEAR      3  -6  66 S13       30.12F WCI -14
BEACH          PTCLDY     1  -2  87 S8        30.11F WCI -13
CROSBY         CLEAR     -6 -13  71 S16       30.13F WCI -28
TIOGA          CLEAR    -11 -17  74 CALM      30.15F
WATFORD CITY   CLEAR     -2  -9  72 SE10      30.13F WCI -18
BISMARCK       PTCLDY    -8 -11  86 E5        30.30F WCI -20
GRAND FORKS    CLEAR    -13 -18  78 S8        30.39F WCI -30
FARGO          PTCLDY    -9 -17  67 SW6       30.43S WCI -23
BUFFALO SD     CLEAR      3  -4  72 S8        30.06F WCI -10
RAPID CITY     PTCLDY     3   0  87 S5        30.19F WCI  -7
$$

REGIONAL REPORTS...WYOMING/IDAHO/WASHINGTON
CITY           SKY/WX    TMP DP  RH WIND       PRES   REMARKS
GILLETTE       CLEAR     18   0  45 SW16      30.07F WCI   3
SHERIDAN       PTCLDY     1  -8  65 CALM      30.08S
CODY           PTCLDY    12   1  61 NE10G17   30.07R WCI  -1
YELLOWSTONE LA PTCLDY    -6  -9  87 CALM      30.21R
SALMON         CLEAR     18  10  71 CALM      30.29S
MULLAN PASS    PTCLDY    21  -2  36 SW8       30.17S WCI  11
SAND POINT     CLEAR     23  21  92 CALM      30.28S
SPOKANE        PTCLDY    30  16  56 SE3       30.25S
$$

REGIONAL REPORTS...ALBERTA
CITY           SKY/WX    TMP DP  RH WIND       PRES   REMARKS
CALGARY        N/A       28   9  45 N3        29.97R
LETHBRIDGE     CLEAR     32  12  43 W21G30    30.02R WCI  20
MEDICINE HAT   CLEAR     19  14  81 SW8       30.01R WCI   9
EDMONTON       PTCLDY    19   5  54 W13       29.93R WCI   6
WATERTON GATE  N/A       30   9  41 SW28G40    N/A   WCI  15
CARDSTON       N/A       32  14  47 W15G22     N/A   WCI  22
MILK RIVER     N/A       21  14  74 W15        N/A   WCI   7
$$

REGIONAL REPORTS...SASKATCHEWAN
CITY           SKY/WX    TMP DP  RH WIND       PRES   REMARKS
SWIFT CURRENT  CLEAR     10   3  73 SW14      29.94R WCI  -6
REGINA         FAIR     -13 -20  70 SE15      30.06F WCI -36
VAL MARIE      N/A        7   1  76 W2         N/A
ASSINIBOIA     N/A        9   0  66 S7         N/A   WCI  -2
CORONACH       N/A        5  -4  66 SE7        N/A   WCI  -7

$$



USA.gov is the U.S. government's official web portal to all federal, state and local government web resources and services.